Regional Weather Roundup
Issued by NWS New Orleans/Baton Rouge, LA

Home | Current Version | Previous Version | Text Only | Print | Product List | Glossary Off
Versions: 1 2 3 4 5 6 7 8 9 10 11 12 13 14 15 16 17 18 19 20 21 22 23 24 25 26 27 28 29 30 31 32 33 34 35 36 37 38 39 40 41 42 43 44 45 46 47 48 49 50

749
ASUS44 KLIX 190107
RWRLIX
NEW ORLEANS REGIONAL WEATHER ROUNDUP
NATIONAL WEATHER SERVICE NEW ORLEANS LA
800 PM CDT SAT APR 18 2015

NOTE: "FAIR" INDICATES FEW OR NO CLOUDS BELOW 12,000 FEET WITH NO
      SIGNIFICANT WEATHER AND/OR OBSTRUCTIONS TO VISIBILITY.
      SKY/WX - SKY CONDITION AND SIGNIFICANT WEATHER.
      TMP - AIR TEMPERATURE.     DP    - DEWPOINT TEMPERATURE.
      RH  - RELATIVE HUMIDITY.   PRES  - PRESSURE.
      HI  - HEAT INDEX.          WCI   - WIND CHILL INDEX.

*  THESE STATIONS ARE NOT NWS OR FAA STATIONS AND ARE NOT UNDER
   NWS QUALITY CONTROL.

LAZ038-040-048-061>063-065>067-069-190200-
SOUTHEAST LOUISIANA

CITY           SKY/WX    TMP DP  RH WIND       PRES   REMARKS
N.O. AUDUBON   NOT AVBL
N.O. INTL ARPT LGT RAIN  72  69  90 S8        29.87S
N.O. LAKEFRONT LGT RAIN  74  69  85 S12       29.88R
SLIDELL        CLOUDY    72  71  97 S10       29.86R
BATON ROUGE    CLOUDY    73  69  87 S13       29.82R
BOOTHVILLE     LGT RAIN  71  69  93 SE9       29.88R
BELLE CHASSE   LGT RAIN  71  68  90 S8        29.88R FOG
BOGALUSA*      RAIN      74  69  85 S7        29.86R
GALLIANO*      DRIZZLE   70  69  96 S6        29.88S
NEW ROADS*     CLOUDY    73  69  87 S6        29.81F
GONZALES*      DRIZZLE   72  72 100 S6        29.82F
HAMMOND*       LGT RAIN  73  70  88 S12       29.86R
HOUMA*         RAIN      72  71  97 SE8       29.87S
PORT FOURCHON* CLOUDY    72  70  94 SE12G17   29.91R

$$

MSZ070-080>082-190200-
SOUTHERN MISSISSIPPI

CITY           SKY/WX    TMP DP  RH WIND       PRES   REMARKS
MCCOMB         CLOUDY    73  69  87 S9        29.83R
GULFPORT       LGT RAIN  73  69  87 S7G17     29.87R
BILOXI         LGT RAIN  73  72  97 SW12      29.87R
PASCAGOULA     LGT RAIN  73  71  93 S6        29.88R
STENNIS ARPT*  CLOUDY    72  66  83 MISG      29.87R

$$

COASTAL OBSERVATIONS
LAKE AND NEARSHORE STATIONS

STATION/POSITION TIME  TEMP    WIND        PRES    WAVE
                       AIR SEA DIR/SP/G            HT/PER
                 (UTC) (F)     (DEG/KT/KT) (MB)    (FT/S)
PASCAGOULA       0000   75     170/  9/ 12 1010.8
WAVELAND YACHT   0000   73 74  190/  4/  5 1011.0
GRAND ISLE       0000   72 76  160/ 11/ 12 1011.2
SOUTHWEST PASS   0000   71 63  160/ 13/ 17 1012.3
NEW CANAL        0006   73     160/  4/  7 1011.1
SHELL BEACH      0000   72 76  180/  6/  9 1011.1

OFFSHORE STATIONS

STATION/POSITION TIME  TEMP    WIND        PRES    WAVE
                       AIR SEA DIR/SP/G            HT/PER
                 (UTC) (F)     (DEG/KT/KT) (MB)    (FT/S)
64 S DAUPHIN ISL 0050   75 74  190/ 14/ 16 1012.4    2/ 6

$$




USA.gov is the U.S. government's official web portal to all federal, state and local government web resources and services.